User: anonymous
Location: Caltech
(34.1382°N, 118.1253°W)
Time: 15:10:42
(UTC-07:00)
Language:

Cosmos 1758 Rocket - Orbit

View from above orbital plane
View from above orbital plane
View from above satellite
View from above satellite

Ground track
Ground track

The orbit data is extracted from the following two-line orbital elements,

1 16792U 86046B   14106.50762692  .00000451  00000-0  52832-4 0  4391
2 16792 082.4854 211.3317 0025882 141.7585 287.3866 14.82519078503319
Epoch (UTC): 16 April 2014 12:10:58
Eccentricity: 0.0025882
inclination: 82.4854°
perigee height: 603 km
apogee height: 639 km
right ascension of ascending node: 211.3317°
argument of perigee: 141.7585°
revolutions per day: 14.82519078
mean anomaly at epoch: 287.3866°
orbit number at epoch: 50331

The dashed part of the orbit path shows where the satellite is in the earth's shadow,  

DLR